Hagerstown, MD

4:13 AM EDT on April 25, 2017 (GMT -0400)
Hagerstown Regional-Henson

Weather History for KHGR - October, 2014

Change the Weather History Date:

Saturday, October 11, 2014

  Actual Average Record
Temperature  
Mean Temperature 55 °F 56 °F  
Max Temperature 59 °F 67 °F 83 °F (2010)
Min Temperature 51 °F 46 °F 38 °F (2012)
Degree Days  
Heating Degree Days 10 9  
Month to date heating degree days 68 84  
Since 1 July heating degree days 122 158  
Cooling Degree Days 0 0  
Month to date cooling degree days 0 9  
Year to date cooling degree days 932 968  
Growing Degree Days 4 (Base 50)    
Moisture  
Dew Point 49 °F    
Average Humidity 84    
Maximum Humidity 96    
Minimum Humidity 72    
Precipitation  
Precipitation 0.21 in 0.11 in 1.24 in (2013)
Month to date precipitation 0.67 1.24  
Year to date precipitation 29.82 31.54  
Sea Level Pressure  
Sea Level Pressure 30.08 in    
Wind  
Wind Speed 5 mph (NE)    
Max Wind Speed 12 mph    
Max Gust Speed 14 mph    
Visibility 5 miles    
Events Rain    
T = Trace of Precipitation, MM = Missing Value Source: NWS Daily Summary

Daily Weather History Graph

Daily Weather History Graph

Search for Another Location

Airport or City:

Trip Planner

Search our weather history database for the weather conditions in past years. The results will help you decide how hot, cold, wet, or windy it might be!

Date:

Astronomy

Oct. 11, 2014 Rise Set
Actual Time 7:16 AM EDT 6:37 PM EDT
Civil Twilight 6:49 AM EDT 7:04 PM EDT
Nautical Twilight 6:18 AM EDT 7:35 PM EDT
Astronomical Twilight 5:47 AM EDT 8:07 PM EDT
Moon 9:04 PM EDT (10/11) 10:38 AM EDT (10/11)
Length of Visible Light 12h 14m
Length of Day
11h 20m
Waning Gibbous, 87% of the Moon is Illuminated
Oct 11
Waning Gibbous
Oct 15
Last Quarter
Oct 23
New
Oct 30
First Quarter
Nov 6
Full

Hourly Weather History & Observations

Time (EDT) Temp. Dew Point Humidity Pressure Visibility Wind Dir Wind Speed Gust Speed Precip Events Conditions
12:15 AM 53.1 °F 51.1 °F 93% 30.07 in 2.5 mi North 8.1 mph - 0.02 in Rain Rain
12:53 AM 52.0 °F 50.0 °F 93% 30.09 in 2.5 mi NNE 5.8 mph - 0.08 in Rain Light Rain
1:05 AM 52.0 °F 50.0 °F 93% 30.05 in 2.5 mi ENE 5.8 mph - 0.01 in Rain Light Rain
1:24 AM 52.0 °F 50.0 °F 93% 30.03 in 2.5 mi East 8.1 mph - 0.02 in Rain Light Rain
1:34 AM 52.0 °F 48.9 °F 89% 30.04 in 4.0 mi East 4.6 mph - 0.02 in Rain Light Rain
1:53 AM 52.0 °F 48.9 °F 89% 30.08 in 4.0 mi East 3.5 mph - 0.02 in Rain Light Rain
2:06 AM 52.0 °F 50.0 °F 93% 30.04 in 2.5 mi East 3.5 mph - 0.01 in Rain Light Rain
2:30 AM 51.1 °F 50.0 °F 96% 30.04 in 2.0 mi East 4.6 mph - 0.02 in Rain Light Rain
2:42 AM 51.1 °F 48.9 °F 92% 30.04 in 2.5 mi East 3.5 mph - 0.02 in Rain Light Rain
2:53 AM 51.1 °F 48.9 °F 92% 30.06 in 2.5 mi East 4.6 mph - 0.03 in Rain Light Rain
3:04 AM 51.1 °F 48.9 °F 92% 30.02 in 3.0 mi East 4.6 mph - 0.00 in Rain Light Rain
3:12 AM 51.1 °F 48.9 °F 92% 30.03 in 3.0 mi ENE 3.5 mph - 0.00 in Rain Light Rain
3:23 AM 51.1 °F 48.9 °F 92% 30.03 in 2.5 mi ENE 4.6 mph - 0.01 in Rain Light Rain
3:53 AM 51.1 °F 48.9 °F 92% 30.06 in 2.0 mi NE 4.6 mph - 0.03 in Rain Light Rain
4:15 AM 51.1 °F 48.9 °F 92% 30.02 in 3.0 mi NE 4.6 mph - 0.03 in Rain Light Rain
4:18 AM 51.1 °F 48.9 °F 92% 30.02 in 3.0 mi NE 4.6 mph - 0.03 in Rain Light Rain
4:32 AM 51.1 °F 48.9 °F 92% 30.02 in 3.0 mi NNE 4.6 mph - 0.03 in Rain Light Rain
4:53 AM 51.1 °F 48.9 °F 92% 30.05 in 2.5 mi NNE 4.6 mph - 0.07 in Rain Light Rain
5:01 AM 51.1 °F 48.9 °F 92% 30.02 in 2.0 mi NNE 4.6 mph - 0.01 in Rain Light Rain
5:09 AM 51.1 °F 48.9 °F 92% 30.04 in 3.0 mi NW 4.6 mph - 0.01 in Rain Light Rain
5:26 AM 51.1 °F 48.9 °F 92% 30.02 in 2.5 mi North 3.5 mph - 0.02 in Rain Light Rain
5:41 AM 51.1 °F 48.9 °F 92% 30.03 in 2.5 mi North 3.5 mph - 0.03 in Rain Light Rain
5:53 AM 51.1 °F 48.9 °F 92% 30.06 in 3.0 mi NNE 3.5 mph - 0.03 in Rain Light Rain
6:17 AM 51.1 °F 48.9 °F 92% 30.02 in 3.0 mi ENE 4.6 mph - 0.01 in Rain Light Rain
6:53 AM 51.1 °F 48.9 °F 92% 30.05 in 4.0 mi NE 3.5 mph - 0.01 in Rain Light Rain
7:05 AM 51.1 °F 48.9 °F 92% 30.02 in 4.0 mi NNE 5.8 mph - 0.01 in Rain Light Rain
7:33 AM 51.1 °F 48.9 °F 92% 30.03 in 4.0 mi NNW 6.9 mph - 0.01 in Rain Light Rain
7:45 AM 51.1 °F 50.0 °F 96% 30.03 in 3.0 mi NNE 4.6 mph - 0.02 in Rain Light Rain
7:53 AM 52.0 °F 50.0 °F 93% 30.07 in 3.0 mi North 4.6 mph - 0.03 in Rain Light Rain
8:46 AM 52.0 °F 50.0 °F 93% 30.05 in 5.0 mi North 5.8 mph - 0.00 in   Overcast
8:53 AM 52.0 °F 50.0 °F 93% 30.09 in 4.0 mi North 6.9 mph - 0.00 in   Overcast
9:53 AM 52.0 °F 50.0 °F 93% 30.11 in 3.0 mi North 5.8 mph - N/A   Overcast
10:46 AM 53.1 °F 48.9 °F 86% 30.09 in 5.0 mi North 8.1 mph - N/A   Overcast
10:53 AM 53.1 °F 50.0 °F 89% 30.12 in 5.0 mi North 8.1 mph - N/A   Overcast
11:53 AM 54.0 °F 48.9 °F 83% 30.13 in 6.0 mi North 5.8 mph - N/A   Haze
12:43 PM 54.0 °F 48.0 °F 80% 30.10 in 6.0 mi North 9.2 mph - N/A   Haze
12:53 PM 54.0 °F 48.9 °F 83% 30.13 in 6.0 mi North 9.2 mph - N/A   Haze
1:11 PM 54.0 °F 48.9 °F 83% 30.10 in 6.0 mi North 9.2 mph - N/A   Haze
1:53 PM 54.0 °F 48.9 °F 83% 30.13 in 7.0 mi North 4.6 mph - N/A   Overcast
2:06 PM 54.0 °F 48.9 °F 83% 30.09 in 7.0 mi NNE 6.9 mph - N/A   Overcast
2:53 PM 57.0 °F 48.9 °F 74% 30.13 in 9.0 mi North 5.8 mph - N/A   Overcast
3:53 PM 57.0 °F 48.0 °F 72% 30.13 in 10.0 mi North 6.9 mph - N/A   Overcast
4:53 PM 57.9 °F 48.0 °F 70% 30.13 in 10.0 mi NE 3.5 mph - N/A   Clear
5:53 PM 57.0 °F 48.0 °F 72% 30.14 in 10.0 mi Calm Calm - N/A   Clear
6:53 PM 55.0 °F 48.0 °F 77% 30.14 in 10.0 mi Calm Calm - N/A   Clear
7:53 PM 54.0 °F 48.0 °F 80% 30.16 in 9.0 mi Calm Calm - N/A   Clear
8:53 PM 52.0 °F 48.0 °F 86% 30.18 in 7.0 mi Calm Calm - N/A   Clear
9:53 PM 53.1 °F 48.9 °F 86% 30.19 in 7.0 mi East 4.6 mph - N/A   Clear
10:21 PM 52.0 °F 48.9 °F 89% 30.16 in 8.0 mi East 4.6 mph - N/A   Mostly Cloudy
10:53 PM 52.0 °F 48.0 °F 86% 30.20 in 8.0 mi ENE 4.6 mph - N/A   Overcast
11:09 PM 52.0 °F 48.0 °F 86% 30.17 in 8.0 mi East 4.6 mph - N/A   Mostly Cloudy
11:53 PM 52.0 °F 48.0 °F 86% 30.21 in 8.0 mi ENE 3.5 mph - N/A   Partly Cloudy